Showing default

CHINASAT 4A, 60606

Orbit data source: Space-Track

CHINASAT 4A, 60606 is a payload satellite owned by PLA SSF (CN) in GEO that was launched on Thu, 22 Aug 2024 UTC via a CHANG ZHENG 7A launch vehicle from the Wenchang Satellite Launch Center (WSC). Payload-class satellites include a variety of spacecraft equipped with specific instruments for various scientific and technological missions. These include communications satellites like Starlink; space stations such as the ISS; scientific satellites like the Hubble; Earth observation satellites from companies like Planet Labs, Umbra, and HawkEye 360; GPS; miniature CubeSats for education and research; and military/defense satellites.

Not visible in the next 10 days
Identifier
60606, 2024-151A
Orbit
GEO
Last TLE update
19 hours ago
Origin
Manufacturer
SISE
Mission
Operational Defense Communications
Bus & Motor
FY-4?, LAE
Mass
~5,000 kg wet, ~2,500 kg dry
Launch date (UTC)
2024-08-22 (9 months ago)
Launch vehicle
CHANG ZHENG 7A
Launch site
Wenchang Satellite Launch Center (WSC)
Object type
Payload
Rocket body
Debris
Shape & HBR
Box + 2 Pan, 30 m
Radar Cross Section
34.063 m², Large (>1 m²)

Expand to show TLE details & history

TLE from 19 hours ago
0 CHINASAT 4A
1 60606U 24151A   25128.90562407 -.00000359  00000-0  00000-0 0  9990
2 60606   2.3573 275.4120 0001779 132.8758 262.9467  1.00271884  2705
Epoch: 2025-05-08T21:44Z
Definitive object data (Epoch: 2025-05-08T21:44:05.919Z)
Latitude
1.39886°
Longitude
118.18957°
Altitude
35,786.809 km
Speed
3.075 km/s
True Right ascension
20h 44m 44s
True Declination
1° 23' 51"
Sunlit
Object was in daylight at TLE epoch
Visualization TLE readout
Latitude
-1.57924°
Longitude
40.68951°
Altitude
35,793.906 km
Speed
3.074 km/s
Apparent Right ascension
15h 17m 54s
Apparent Declination
-6° 30' 40"
Sunlit
Object is in daylight
Visualization observer readout
Local Sidereal Time
00:41:14
Azimuth
302.991° NW
Elevation
-41.576°
Doppler factor
1
Orbital elements
Apogee altitude
35,795.136 km
Perigee altitude
35,780.134 km
Semi-major axis
42,165.772 km
Eccentricity
0.0001779
Inclination
2.3573°
RAAN
275.412°
Arg. of periapsis
132.8758°
True anomaly
262.92647°
Mean anomaly
262.9467°
Eccentric anomaly
262.93658°
Mean motion
0.25067 °/min
BSTAR
Unknown
Orbital period
1436.15 mins
Loading historical data...
60606 neighbors
Loading maneuver chart data...
Loading SW <> Apogee altitude chart data...
Loading historical data...
Loading historical data...
Loading historical data...
Loading historical data...
Loading historical data...
Loading historical data...
Loading historical data...
Other satellites on launch #151 in the year 2024 (2024-08-22 UTC)

CHINASAT 4A Visibility forecast

Observer location: undefined°, undefined°

CHINASAT 4A is not visible in the next 10 days
Span
Click to sort rows by Start time (UTC) header in descending order
Start Az.
Max El. time (UTC)
Max El. Az.
Max El.
End time (UTC)
End Az.
|